Погода в Волгине

Россия / Новгородская область     58°26′46″N   33°52′01″E
темп.,
°C
ветер,
м/с
пор.,
м/с
влажн.,
%
обл.,
%
осадки,
мм/ч
давл.,
гПа
погр.,
м
18 апреля, вс
вс1800:00+6св411715 0.0 1027298
03:00+4св411795 0.0 1027271
06:00+3св311835 0.0 1027274
09:00+8всв49610 0.0 1027531
12:00+12всв58435 0.0 10261749
15:00+13всв683734 0.0 10262138
18:00+11в4849100 0.0 10261656
21:00+8всв4106062 0.0 1028506
19 апреля, пн
пн1900:00+6всв4117368 0.0 1028482
03:00+4всв498397 0.0 1029367
06:00+3всв3108585 0.0 1029412
09:00+6в47666 0.0 1029773
12:00+9в464810 0.0 10281384
15:00+11в563912 0.0 10281727
18:00+9в46413 0.0 10271634
21:00+5в310531 0.0 1028359
20 апреля, вт
вт2000:00+3в310662 0.0 1028236
03:00+2всв3107080 0.0 1027293
06:00+1всв3107498 0.0 1026355
09:00+4в5960100 0.0 1025908
12:00+6вюв575899 0.0 10241220
15:00+7вюв5867100 0.0 10221120
18:00+5вюв41086100 0.0 1021762
21:00+5в31181100 0.0 1020775
21 апреля, ср
ср2100:00+5в4987100 0.0 1017810
03:00+5всв51081100 0.2 1013791
06:00+3всв61377100 0.5 1010829
09:00+1всв51295100 3.0 1007743
12:00+3в5994100 0.3 1005673
15:00+1всв31097100 2.3 1003458
18:00+2всв2698100 0.6 1002506
21:00+2ссз2299100 1.9 1003332
22 апреля, чт
чт2200:00+2з3698100 0.4 1004335
03:00+1зюз4898100 1.7 1006534
06:00+1зюз3998100 0.7 1009551
09:00+2зюз3891100 0.8 1013756
12:00+4з3680100 0.1 1016947
15:00+6зюз3573100 0.1 10181137
18:00+7ююз237629 0.0 1019461
21:00+4юв239174 0.0 102147